星链-11526 (STARLINK-11526)

导读

STARLINK-11526是美国于2025年2月15日发射的星链系列卫星,隶属于太空探索技术公司SpaceX打造的星链星座网络。该卫星旨在为全球范围尤其是偏远地区、海洋空域提供低延迟、高速率的宽带互联网服务,是星链项目大规模部署全球卫星互联网星座进程中的组成单元,依托低轨轨道布局提升全球网络覆盖能力。

基本信息
目录编号:
63007
目录名称:
STARLINK-11526
国际标识:
2025-032C
轨道中心:
EARTH
卫星名称:
星链-11526
卫星全名:
星链-11526 (STARLINK-11526)
卫星状态:
在轨 (已飞行567 天)
发射日期:
2025-02-15 UTC
国别 :
美国 (US)
星等 :
--
轨道信息
数据来源 国际轨道数据
星历时间: 2026-09-05T04:02:27+0800
11小时前
查看轨道信息
半长轴: 6734.499km
偏心率: 0.0001361
轨道倾角: 42.999°
近地点辐角 246.502°
升交点赤经 195.072°
平近点角 113.571°
近地点: 355.445km
远地点: 357.279km
周期: 91.668分钟
每日圈数: 15.708866
详细信息
固有亮度:
5
最大亮度:
2.5
卫星平台:
Starlink V1.0
覆盖范围:
全球
运营商:
太空探索技术公司
运营商所在国:
美国
制造商(研发单位):
太空探索技术公司
制造商所在国:
美国
使用方式:
暂无
卫星简介
Starlink 计划是 SpaceX 推出的全球卫星互联网项目,通过发射低轨道卫星,为全球尤其是偏远地区提供高速、低延迟的互联网服务。自 2019 年起,Starlink 已部署数千颗卫星,旨在缩小全球数字鸿沟,推动互联网普及。该项目还为军事、航空等行业提供通信支持,带来广泛经济效益。
2D轨道图
3D轨道图
轨道高度分析图
轨道倾角分析图
轨道综合分析图
查看轨道综合分析图